Regional Weather Roundup
Issued by NWS Sterling, VA

Home | Current Version | Previous Version | Graphics & Text | Print | Product List | Glossary On
Versions: 1 2 3 4 5 6 7 8 9 10 11 12 13 14 15 16 17 18 19 20 21 22 23 24 25 26 27 28 29 30 31 32 33 34 35 36 37 38 39 40 41 42 43 44 45 46 47 48 49 50
000
ASUS41 KLWX 252111
RWRLWX

REGIONAL WEATHER ROUNDUP
NATIONAL WEATHER SERVICE BALTIMORE MD/WASHINGTON DC
500 PM EDT WED APR 25 2018

Note: "FAIR" indicates few or no clouds below 12,000 feet
with no significant weather and/or obstructions to visibility.
 TC=TEMPERATURE CELSIUS

 * =Non NWS site. Station does not report precipitation (e.g. rain,
    snow, etc.), thunder, or fog.

DCZ001-MDZ009-015-VAZ040>042-051-053>054-252200-
WASHINGTON METRO

CITY           SKY/WX    TMP DP  RH WIND       PRES   REMARKS
WASHINGTON NAT CLOUDY    66  56  70 NW14      29.68F
DULLES         LGT RAIN  60  59  96 NW9       29.70F FOG
ANDREWS AFB    CLOUDY    64  58  80 NW8       29.67S
FT BELVOIR     CLOUDY    65  56  74 NW10      29.68F
QUANTICO       CLOUDY    65  58  78 NW10      29.70S
COLLEGE PARK*  CLOUDY    64  57  76 NW6       29.67S
LEESBURG*      CLOUDY    57  57 100 NE5       29.71F
MANASSAS*      CLOUDY    61  57  88 N7        29.71R
GAITHERSBURG*  LGT RAIN  59  57  94 VRB3      29.71S

$$

MDZ006>007-011-014-252200-
BALTIMORE METRO

CITY           SKY/WX    TMP DP  RH WIND       PRES   REMARKS
BWI AIRPORT    CLOUDY    65  60  84 NW6       29.66F
MD SCIENCE CTR   N/A     68  60  75 MISG      29.68R
MARTIN STATE   CLOUDY    64  63  94 NW6       29.68F
ANNAPOLIS      CLOUDY    64  59  83 CALM      29.66F
FORT MEADE*    CLOUDY    64  57  77 N5        29.70S

$$

MDZ012-015-019>023-252200-
MARYLAND EASTERN SHORE

CITY           SKY/WX    TMP DP  RH WIND       PRES   REMARKS
OCEAN CITY     FAIR      62  58  86 S8        29.65F
SALISBURY      PTSUNNY   72  59  63 W14       29.63F
BAY BRIDGE AP* CLOUDY    63  59  88 NW7       29.67S
CAMBRIDGE*     PTSUNNY   66  61  82 NW6       29.65S
EASTON*        PTSUNNY   68  61  77 NW9       29.69S

$$

MDZ017>025-252200-
SOUTHERN MARYLAND

CITY           SKY/WX    TMP DP  RH WIND       PRES   REMARKS
PATUXENT RIVER CLOUDY    63  59  87 NW8       29.67S
ST INIGOES     CLOUDY    63  60  90 W8        29.66S
LEONARDTOWN*   CLOUDY    61  57  88 N3        29.69S

$$

MDZ003>005-252200-
NORTH CENTRAL MARYLAND

CITY           SKY/WX    TMP DP  RH WIND       PRES   REMARKS
FREDERICK*     CLOUDY    61  61 100 CALM      29.73F
HAGERSTOWN APT CLOUDY    65  55  70 N6        29.70F
WESTMINSTER*   CLOUDY    63  59  88 NW6       29.70S

$$

MDZ501>502-252200-
WESTERN MARYLAND

CITY           SKY/WX    TMP DP  RH WIND       PRES   REMARKS
OAKLAND*       CLOUDY    48  48 100 NW6       29.78S
CUMBERLAND*    CLOUDY    68  50  52 NW9G16    29.78R

$$

VAZ025>031-252200-
SHENANDOAH VALLEY

CITY           SKY/WX    TMP DP  RH WIND       PRES   REMARKS
WINCHESTER*    CLOUDY    63  52  67 W16       29.72S
FRONT ROYAL*   CLOUDY    64  52  63 NW8       29.70S
LURAY*         CLOUDY    64  52  63 CALM      29.71F
NEW MARKET*    CLOUDY    65  51  62 N3        29.70F
STAUNTON*      CLOUDY    65  52  62 N3        29.74F
WAYNESBORO*    CLOUDY    64  56  75 NW6       29.73F

$$

WVZ021-048>050-054>055-252200-
EASTERN WEST VIRGINIA PANHANDLE

CITY           SKY/WX    TMP DP  RH WIND       PRES   REMARKS
MARTINSBURG    CLOUDY    69  54  58 NW9       29.69F
PETERSBURG*    CLOUDY    64  51  64 NW6       29.74F

$$

VAZ036>039-050-252200-
CENTRAL FOOTHILLS

CITY           SKY/WX    TMP DP  RH WIND       PRES   REMARKS
CHARLOTTESVILL CLOUDY    69  55  60 NW8       29.69S
CULPEPER*      CLOUDY    65  57  75 E3        29.70S
ORANGE*        CLOUDY    64  55  72 CALM      29.70S
GORDONSVILLE*  CLOUDY    65  59  80 CALM      29.69F
WARRENTON*     LGT RAIN  62  57  83 NE5       29.70S

$$

VAZ055>057-252200-
NORTH AND CENTRAL PIEDMONT

CITY           SKY/WX    TMP DP  RH WIND       PRES   REMARKS
FREDERICKSBRG* CLOUDY    63  58  82 W7        29.70R
STAFFORD*      CLOUDY    63  60  91 NW8       29.74R

$$

NCZ024-NYZ072-PAZ021-071-VAZ022-071-252200-
OTHER REGIONAL OBSERVATIONS

CITY           SKY/WX    TMP DP  RH WIND       PRES   REMARKS
NEW YORK CITY  LGT RAIN  58  57  97 NE6       29.71F FOG
PHILADELPHIA   CLOUDY    67  58  72 E3        29.66S
PITTSBURGH     LGT RAIN  54  52  93 NW16G26   29.81R FOG
ROANOKE        PTSUNNY   67  52  58 W14G23    29.77S
RICHMOND       CLOUDY    64  62  93 NW12      29.68F
RALEIGH        PTSUNNY   66  58  75 VRB6      29.74F

$$

ANZ530>537-252200-
MARINE OBSERVATIONS

STATION/POSITION TIME  TEMP    WIND        PRES
                       AIR SEA DIR/SP/G
                 (UTC) (F)     (DEG/KT/KT) (MB)
THOMAS PT LIGHT  2100   61 54  360/  9/  9 1005.5F
BALT KEY BRIDGE  2036   61     280/  3/  3 1004.6F
COVE POINT       2036   60     330/  6/  8 1005.2F
LEWISETTA        2036   59 57  110/  3/  4 1004.6F
SOLOMONS ISLAND  2036   60 54  320/  5/  7 1004.4F
PINEY POINT      2048          320/ 14/ 15   N/A

$$




USA.gov is the U.S. government's official web portal to all federal, state and local government web resources and services.